Lid_Strength_Index
7 7 8 10 12 9 12 13 13 15 13 10 8 7 7 7 6 7 5 5 5 4 6 3 3 2 2 2 2 2 2 1
7 7 7 8 9 13 13 16 18 16 16 14 11 8 8 7 7 6 5 6 5 3 4 4 2 2 2 2 2 2 1 1
8 9 10 10 12 11 12 13 16 18 16 10 11 9 9 8 6 6 7 5 5 4 4 3 2 2 2 2 2 2 2 2
11 8 7 8 10 11 13 13 13 14 17 8 9 8 7 8 7 6 5 5 4 4 3 3 3 3 2 2 2 2 1 1
13 10 8 10 10 9 9 12 14 16 16 8 8 8 8 8 7 6 6 5 5 4 4 4 3 3 2 2 2 2 1 2
15 13 11 11 9 9 11 13 12 14 14 11 10 9 8 7 6 6 6 5 5 5 4 4 3 3 3 3 3 3 3 3
10 9 9 10 10 9 11 10 13 13 13 10 9 8 8 7 6 6 6 5 5 5 4 4 3 3 3 3 3 2 2 2
12 10 9 10 9 9 9 9 10 10 11 8 7 8 8 7 6 7 6 5 5 4 4 4 3 3 3 2 2 2 2 3
15 11 11 13 10 9 9 8 10 12 10 7 8 8 8 8 6 7 6 5 5 4 4 4 3 3 3 3 2 2 2 2
14 12 17 10 7 7 8 8 8 8 8 7 7 7 6 6 7 6 5 5 4 4 4 3 2 3 2 2 2 2 2 2
14 14 11 9 8 9 9 10 7 8 7 7 6 6 7 5 4 5 4 4 4 3 3 2 2 2 2 3 3 3 3 3
12 15 15 10 7 6 7 12 6 7 7 7 7 11 9 5 4 4 3 3 4 3 3 3 2 2 2 3 3 3 2 2
12 14 12 8 6 6 13 13 6 6 6 7 8 7 6 4 4 4 4 4 3 3 3 3 3 3 3 3 3 2 1 2
12 14 16 6 7 11 9 6 6 6 6 6 6 5 5 5 5 5 4 4 3 3 4 4 3 3 4 4 3 3 2 2
11 12 8 7 7 5 5 6 6 6 6 5 6 6 5 5 5 4 4 4 3 4 4 4 4 4 5 5 4 4 3 2
9 9 7 6 5 5 5 5 5 5 5 5 5 5 5 5 4 4 4 4 4 4 5 5 4 4 4 4 3 4 4 4
9 8 7 6 5 5 4 4 4 4 4 4 4 5 5 5 5 5 5 4 5 5 5 5 5 5 4 4 4 5 4 4
11 8 8 7 5 4 5 5 4 4 4 4 4 5 5 6 6 6 6 6 6 6 6 6 5 5 4 3 4 4 4 4
8 5 5 5 4 4 4 4 4 4 4 4 5 5 6 6 6 5 6 6 6 6 5 5 4 4 4 4 3 4 5 5